Location: Branche des Alpilles
(43.6087°N, 4.6976°E)
Time: 01:31:39
(UTC+00:00)

X-37B - Visible Passes

Search period start: 08 December 2021 00:00
Search period end: 18 December 2021 00:00
Orbit: 329 x 342 km, 45.0° (Epoch: 06 December)

Date Brightness Start Highest point End Pass type
(mag) Time Alt. Az. Time Alt. Az. Time Alt. Az.
08 Dec 0.8 17:34:33 10° SW 17:37:21 48° SSE 17:37:49 43° ESE visible
09 Dec 0.7 17:54:52 10° WSW 17:57:23 64° WSW 17:57:23 64° WSW visible
10 Dec 1.0 16:40:00 10° SW 16:42:47 48° SSE 16:45:36 10° E visible
10 Dec 2.4 18:15:23 10° W 18:16:56 27° W 18:16:56 27° W visible
11 Dec 0.3 17:00:18 10° WSW 17:03:13 89° ENE 17:05:15 18° ENE visible
11 Dec 3.6 18:35:55 10° W 18:36:28 14° WNW 18:36:28 14° WNW visible
12 Dec 0.4 17:20:49 10° W 17:23:42 65° N 17:24:47 33° ENE visible
13 Dec 0.3 17:41:21 10° W 17:44:13 64° N 17:44:22 62° NNE visible
14 Dec 1.3 18:01:50 10° WNW 18:03:59 46° WNW 18:03:59 46° WNW visible
15 Dec 0.4 16:46:47 10° W 16:49:40 63° N 16:52:28 11° E visible
15 Dec 2.8 18:22:19 10° W 18:23:42 24° W 18:23:42 24° W visible
16 Dec 0.2 17:07:16 10° WNW 17:10:11 85° NNE 17:12:16 17° E visible
16 Dec 3.8 18:43:01 10° W 18:43:31 13° W 18:43:31 13° W visible
17 Dec 1.0 17:27:46 10° W 17:30:36 53° SSW 17:32:15 21° SE visible
